Location: Newark
(34.9756°N, 138.3828°E)
Time: 05:25:12
(UTC+00:00)

N. Korean satellite - Pass Details

Date: 13 December 2019
Orbit: 454 x 508 km, 97.2° (Epoch: 20 January)

Event Time Altitude Azimuth Distance (km) Brightness Sun altitude
Rises 21:02:40 0° 0° (N) 2,517 10.0 -8.8°
Reaches altitude 10° 21:04:52 10° 350° (N) 1,627 8.9 -8.4°
Maximum altitude 21:08:00 32° 286° (WNW) 820 7.2 -7.8°
Drops below altitude 10° 21:11:04 10° 222° (SW) 1,596 9.0 -7.2°
Sets 21:13:13 0° 212° (SSW) 2,460 10.1 -6.8°
